Regional Weather Roundup
Issued by NWS

Home | Current Version | Previous Version | Text Only | Print | Product List | Glossary Off
Versions: 1 2 3 4 5 6 7 8 9 10 11 12 13 14 15 16 17 18 19 20 21 22 23 24 25 26 27 28 29 30 31 32 33 34 35 36 37 38 39 40 41 42 43 44 45 46 47 48 49 50

000
ASUS43 KFSD 240510
RWRSD

WEATHER ROUNDUP FOR SOUTH DAKOTA
NATIONAL WEATHER SERVICE SIOUX FALLS SD
1200 AM CDT TUE OCT 24 2017

NOTE: "FAIR" INDICATES FEW OR NO CLOUDS BELOW 12,000 FEET WITH NO
SIGNIFICANT WEATHER AND/OR OBSTRUCTIONS TO VISIBILITY.


SDZ001>005-009-010-012>017-240600-
NORTHWEST AND NORTH CENTRAL SOUTH DAKOTA

CITY           SKY/WX    TMP DP  RH WIND       PRES   REMARKS
BUFFALO          N/A     43  24  47 NW25G33   30.37R
FAITH            N/A     40  26  57 NW15      30.38R
MOBRIDGE       CLEAR     45  32  60 NW16G24   30.26S
$$

SDZ012>016-024>037-041>051-057-063-072>074-240600-
SOUTHWEST AND SOUTH CENTRAL SOUTH DAKOTA

CITY           SKY/WX    TMP DP  RH WIND       PRES   REMARKS
RAPID CTY ARPT CLEAR     47  21  35 NW24G31   30.43R
PIERRE         CLEAR     46  29  51 NW21G28   30.28R
CUSTER         CLEAR     38  17  42 NW12G22   30.44S
ELLSWORTH AFB  CLEAR     46  21  37 NW20G28   30.42R
PHILIP         CLEAR     46  26  45 NW14      30.38R
PINE RIDGE     CLEAR     38  23  55 NW8       30.44R
SPEARFISH      FAIR      43  21  42 W13       30.49R
WINNER         FAIR      47  28  47 NW18      30.27R
$$

SDZ004>011-016>023-039-040-240600-
NORTHEAST SOUTH DAKOTA

CITY           SKY/WX    TMP DP  RH WIND       PRES   REMARKS
ABERDEEN       CLEAR     42  32  67 NW20      30.19R
WATERTOWN      CLEAR     41  32  70 N21G30    30.07S
BROOKINGS      CLEAR     42  31  64 N23G32    30.06R
SISSETON         N/A     39  30  70 N22G31    30.11R
$$

SDZ017-020-022-023-036>040-048>070-240600-
SOUTHEAST SOUTH DAKOTA

CITY           SKY/WX    TMP DP  RH WIND       PRES   REMARKS
SIOUX FALLS    PTCLDY    46  36  68 NW26G43   30.06R
HURON          CLEAR     43  33  68 NW15      30.17R
CHAMBERLAIN    MOCLDY    51  33  49 NW18G29   30.24R
MITCHELL       PTCLDY    47  32  56 N21G38    30.18R
YANKTON        CLEAR     49  31  49 NW31G41   30.12R
$$

ABBREVIATIONS USED IN REMARKS
   TC - TEMPERATURE IN CELSIUS
  WCI - WIND CHILL INDEX
   HX - HEAT INDEX
  VSB - VISIBILITY





USA.gov is the U.S. government's official web portal to all federal, state and local government web resources and services.